Regional Weather Roundup
Issued by NWS

Home | Current Version | Previous Version | Graphics & Text | Print | Product List | Glossary On
Versions: 1 2 3 4 5 6 7 8 9 10 11 12 13 14 15 16 17 18 19 20 21 22 23 24 25 26 27 28 29 30 31 32 33 34 35 36 37 38 39 40 41 42 43 44 45 46 47 48 49 50
000
ASUS44 KMEG 242010
RWRTN
TENNESSEE HOURLY STATE WEATHER ROUNDUP
NATIONAL WEATHER SERVICE MEMPHIS TN
300 PM CDT WED MAY 24 2017

TNZ002-004-019-021-049-052-054-088>092-242100-
WEST TENNESSEE

CITY           SKY/WX    TMP DP  RH WIND       PRES   REMARKS
MEMPHIS INTL   CLOUDY    67  52  58 NW8       29.58F
NWS MEMPHIS      N/A     66 N/A N/A MISG        N/A
JACKSON        CLOUDY    68  55  63 NW6       29.56R
DYERSBURG        N/A    N/A N/A N/A MISG        N/A
COVINGTON      PTSUNNY   68  50  52 NW10      29.56F
UNION CITY     PTSUNNY   68  48  49 NW8       29.53S
BOLIVAR        CLOUDY    66  55  68 W5        29.56S
PARIS          MOSUNNY   68  52  56 VRB6G14   29.51F
HUNTINGDON     PTSUNNY   66  54  63 VRB7      29.52S
LEXINGTON      PTSUNNY   66  54  63 MISG      29.54S
SELMER         MOSUNNY   66  54  63 VRB5      29.54F
SAVANNAH       MOSUNNY   68  55  64 VRB6      29.55F
$$

TNZ008-025-027-028-033-062-065-066-242100-
NORTH MIDDLE TENNESSEE

CITY           SKY/WX    TMP DP  RH WIND       PRES   REMARKS
NASHVILLE      CLOUDY    60  54  80 W9        29.52R
PORTLAND       PTSUNNY   59  57  94 W14G22    29.46R
CLARKSVILLE    CLOUDY    60  53  77 NW17G23   29.51R
SMYRNA         CLOUDY    59  54  83 W18       29.52R
COOKEVILLE     PTSUNNY   64  55  72 W10G28    29.46R
GALLATIN       CLOUDY    61  57  88 W9G17     29.51R
CROSSVILLE     LGT RAIN  60  54  80 SW18G35   29.49R
$$

TNZ061-075-076-078-094-096-097-242100-
SOUTH MIDDLE TENNESSEE

CITY           SKY/WX    TMP DP  RH WIND       PRES   REMARKS
FAYETTEVILLE   PTSUNNY   64  54  68 W9G17     29.55R
TULLAHOMA      PTSUNNY   63  55  77 W22       29.54R
WINCHESTER     CLOUDY    61  57  88 SW5         N/A
COLUMBIA       CLOUDY    64  52  63 W9        29.53S
SHELBYVILLE    CLOUDY    61  57  88 W10G18    29.53R
$$

TNZ017-018-042-046-047-242100-
NORTHEAST TENNESSEE

CITY           SKY/WX    TMP DP  RH WIND       PRES   REMARKS
TRI CITIES     PTSUNNY   64  61  90 SE8       29.52
ELIZABETHTON   PTSUNNY   61  59  94 VRB6      29.53F
$$

TNZ012-013-036-069-073-074-242100-
CENTRAL EAST TENNESSEE

CITY           SKY/WX    TMP DP  RH WIND       PRES   REMARKS
KNOXVILLE      PTSUNNY   72  59  63 SW20G29   29.43F
OAK RIDGE      PTSUNNY   72  57  59 S10G18    29.43F
DOWNTOWN KNOXV MOSUNNY   73  61  64 SW15G28   29.44F
GATLINBURG     PTSUNNY   72  57  60 W5        29.45F
MORRISTOWN     MOSUNNY   70  59  68 SW13G18   29.46F
JACKSBORO      PTSUNNY   70  59  68 S9G18     29.44F
$$

TNZ083-085-099-242100-
SOUTHEAST TENNESSEE

CITY           SKY/WX    TMP DP  RH WIND       PRES   REMARKS
CHATTANOOGA    PTSUNNY   71  55  56 W20G26    29.49R
$$

SKY/WX REPORTED AS FAIR MEANS FEW OR NO CLOUDS BELOW
12 THOUSAND FEET.




USA.gov is the U.S. government's official web portal to all federal, state and local government web resources and services.